COSMOS 1275 DEB, 42102

Orbit data source: Space-Track

COSMOS 1275 DEB, 42102 is space debris in LEO originally from a launch on Thu, 04 Jun 1981 UTC launched from the Plesetsk Missile And Space Complex (PKMTR). Debris objects in space refer to the collection of defunct objects orbiting the Earth. Examples of debris include non-operational satellites, rocket bodies, and fragments generated from explosions, collisions, or faulty payload assembly.

Loading next visibility...
Identifier
42102, 1981-053PN
Orbit
LEO
Country
Flag of CISCIS
Related business
Manufacturer
Unknown
Mission
Spacecraft
Bus & Motor
Unknown
Mass
Unknown
Launch date (UTC)
1981-06-04 (45 years ago)
Launch vehicle
Unknown
Launch site
Plesetsk Missile And Space Complex (PKMTR)
Object type
Payload
Rocket body
Debris
Shape & HBR
Unknown shape, 0.1 m
Radar Cross Section
Small (<0.1 m²)

Expand to show TLE details & history
Last TLE update: 1 day ago

TLE from 1 day ago
0 COSMOS 1275 DEB
1 42102U 81053PN  26207.19712461  .00001130  00000-0  89370-3 0  9999
2 42102  83.0124  23.5679 0075046 151.2769 209.2560 13.89374999640011
Epoch: 2026-07-26T04:43Z
TLE epoch observation values (Epoch: 2026-07-26T04:43:51.566Z)
Latitude
-0.00007°
Longitude
8.70452°
Altitude
981.705 km
Speed
7.337 km/s
True Right ascension
01h 34m 16s
True Declination
0° 00' 00"
Sunlit
Object was in daylight at epoch
Visualization orbit readout
Latitude
Unknown
Longitude
Unknown
Altitude
Unknown
Speed
Unknown
Apparent Right ascension
Unknown
Apparent Declination
Unknown
Sunlit
N/A
Visualization observer readout
Local Sidereal Time
23:14:02
Azimuth
Unknown
Elevation
Unknown
Doppler factor
Unknown
Orbital elements
Apogee altitude
982.777 km
Perigee altitude
873.119 km
Semi-major axis
7,306.085 km
Eccentricity
0.0075
Inclination
83.0124°
RAAN
23.5679°
Arg. of periapsis
151.2769°
True anomaly
208.83914°
Mean anomaly
209.256°
Eccentric anomaly
209.04723°
Mean motion
3.47549 °/min
Orbital period
103.58 mins
BSTAR
0.0008937
Loading maneuver chart data...
Computing Atmospheric mass density...
Loading historical data...
Loading historical data...
Loading historical data...
Loading historical data...
Loading historical data...
Loading historical data...
Loading historical data...

Documentation

Showing up to 5 results
|